Regional Weather Roundup
Issued by NWS

Home | Current Version | Previous Version | Text Only | Print | Product List | Glossary Off
Versions: 1 2 3 4 5 6 7 8 9 10 11 12 13 14 15 16 17 18 19 20 21 22 23 24 25 26 27 28 29 30 31 32 33 34 35 36 37 38 39 40 41 42 43 44 45 46 47 48 49 50

934
ASUS43 KIND 232309
RWRIN

WEATHER ROUNDUP FOR INDIANA
NATIONAL WEATHER SERVICE INDIANAPOLIS IN
700 PM EDT THU MAR 23 2017

NOTE: "FAIR" INDICATES FEW OR NO CLOUDS BELOW 12,000 FEET WITH NO
SIGNIFICANT WEATHER AND/OR OBSTRUCTIONS TO VISIBILITY.

* - STATION DOES NOT REPORT WEATHER SUCH AS PRECIPITATION OR FOG.

+ - STATION NOT QUALITY CONTROLLED BY THE NATIONAL WEATHER SERVICE.
    USE DATA WITH CAUTION...ESPECIALLY DEWPOINT AND RELATIVE
    HUMIDITY OBSERVATIONS.

INZ001>003-010>013-019-020-240000-
NORTHWEST INDIANA

CITY           SKY/WX    TMP DP  RH WIND       PRES   REMARKS
GARY /AIRPORT/ CLOUDY    50  25  37 SE9       30.14F
KNOX *+        CLOUDY    46   1  15 SE10G18   30.19F
LA PORTE +     CLOUDY    46  26  45 S15       30.18F
MICHIGAN CITY+ CLOUDY    46  27  46 SE7G16    30.16F
MONTICELLO +   CLOUDY    51  24  35 S6        30.18F
RENSSELAER +   CLOUDY    50  27  40 SE12      30.15F
VALPARAISO     CLOUDY    49  29  46 SE13      30.16F

$$

LMZ046-743>745-240000-
SOUTHERN LAKE MICHIGAN

STATION/POSITION TIME  TEMP    WIND        PRES    WAVE
                       AIR SEA DIR/SP/G            HT
                 (UTC) (F)     (DEG/KT/KT) (MB)    (FT)
BURNS HARBOR     2240   48     140/ 10/ 20 1021.3F
MICHIGAN CITY    2240   47     140/ 16/ 19   N/A

$$

INZ004-005-014>016-021>024-240000-
NORTH CENTRAL INDIANA

CITY           SKY/WX    TMP DP  RH WIND       PRES   REMARKS
ELKHART        MOSUNNY   46  21  36 SE15      30.21F
GOSHEN         CLOUDY    46  22  38 SE15      30.21F
LOGANSPORT +   CLOUDY    50  32  50 SE9       30.20S
PERU/GRISSOM   CLOUDY    51  32  48 SE8       30.18F
ROCHESTER +    CLOUDY    50  27  40 SE9       30.20F
SOUTH BEND     CLOUDY    45  22  40 SE17      30.21F
WARSAW +       CLOUDY    45  25  45 SE8       30.22F

$$

INZ006>009-017-018-025>027-240000-
NORTHEAST INDIANA

CITY           SKY/WX    TMP DP  RH WIND       PRES   REMARKS
ANGOLA *+      PTCLDY    46  30  53 S14       30.23F
AUBURN +       MOCLDY    46  21  36 SE6       30.25F
FORT WAYNE     MOCLDY    48  26  42 SE10      30.24F
HUNTINGTON +   MOSUNNY   47  25  40 SE7       30.22F
KENDALLVILLE + CLOUDY    46  21  38 S13       30.23F

$$

INZ028-029-035-036-043>045-051>053-240000-
WEST CENTRAL INDIANA

CITY           SKY/WX    TMP DP  RH WIND       PRES   REMARKS
CRAWFORDSVL +  CLOUDY    51  28  40 S8        30.18F
GREENCASTLE +  CLOUDY    52  27  37 S10       30.21S
LAFAYETTE      CLOUDY    51  27  39 SE7       30.17F
TERRE HAUTE    CLOUDY    50  28  42 S8        30.20F

$$

INZ030>032-037>040-046>048-054>057-064-065-240000-
CENTRAL INDIANA

CITY           SKY/WX    TMP DP  RH WIND       PRES   REMARKS
CP ATTERBURY + CLOUDY    55  27  33 S8        30.23F
COLUMBUS       CLOUDY    55  27  33 S10       30.24S
FISHERS *+     CLOUDY    52  32  46 S13       30.21F
FRANKFORT +    CLOUDY    54  32  43 S8        30.20F
GREENWOOD *+   CLOUDY    55  27  33 S9        30.23S
INDIANAPOLIS   CLOUDY    55  24  30 SE10      30.21F
-EAGLE CREEK   CLOUDY    56  22  26 S9        30.20F
KOKOMO +       CLOUDY    51  32  48 SE9       30.21F
MARION +       CLOUDY    50  28  42 SE10      30.21F HAZE
MT COMFORT *+  CLOUDY    54  27  35 S9        30.22F
SHELBYVILLE    CLOUDY    56  26  31 S8        30.22F
ZIONSVILLE +   CLOUDY    52  27  38 S12       30.20F

$$

INZ033-034-041-042-049-050-058-059-240000-
EAST CENTRAL INDIANA

CITY           SKY/WX    TMP DP  RH WIND       PRES   REMARKS
MUNCIE         CLOUDY    53  24  32 SE8       30.22F
RICHMOND +     PTCLDY    48  32  53 SE6       30.26S

$$

INZ060-061-067>069-081>083-085>088-240000-
SOUTHWEST INDIANA

CITY           SKY/WX    TMP DP  RH WIND       PRES   REMARKS
EVANSVILLE     PTSUNNY   53  40  61 SE9       30.20F
HUNTINGBURG *+ CLOUDY    56  36  47 SE13      30.22F
WASHINGTON +   CLOUDY    51  32  47 MISG      30.21F

$$

INZ062-063-066-070>080-084-089>092-240000-
SOUTH CENTRAL AND SOUTHEAST INDIANA

CITY           SKY/WX    TMP DP  RH WIND       PRES   REMARKS
BEDFORD +      CLOUDY    55  23  28 SE5       30.23S
BLOOMINGTON    CLOUDY    54  24  31 S10       30.21F
MADISON *+     CLOUDY    57  27  30 S5        30.26S
NORTH VERNON + CLOUDY    59  27  29 S13G18    30.24F
SEYMOUR +      CLOUDY    57  32  38 S3        30.24S

$$





USA.gov is the U.S. government's official web portal to all federal, state and local government web resources and services.